Weather History for KPBF - October, 2011

Change the Weather History Date:

Sunday, October 30, 2011

  Actual Average Record
Temperature  
Mean Temperature 50 °F 59 °F  
Max Temperature 65 °F 70 °F 91 °F (1937)
Min Temperature 35 °F 48 °F 25 °F (1917)
Degree Days  
Heating Degree Days 15 7  
Month to date heating degree days 137 118  
Since 1 July heating degree days 139 129  
Cooling Degree Days 0 1  
Month to date cooling degree days 66 74  
Year to date cooling degree days 2470 2118  
Moisture  
Dew Point 35 °F    
Average Humidity 60    
Maximum Humidity 92    
Minimum Humidity 28    
Precipitation  
Precipitation 0.00 in 0.16 in 3.07 in (1926)
Month to date precipitation 3.25 4.83  
Year to date precipitation 33.79 40.71  
Snow  
Snow 0.00 in 0.00 in T in (1993)
Month to date snowfall 0.0 0.0  
Since 1 July snowfall 0.0 0.0  
Since 1 September snowfall 0.0 0.0  
Snow Depth 0.00 in    
Sea Level Pressure  
Sea Level Pressure 30.19 in    
Wind  
Wind Speed 4 mph (South)    
Max Wind Speed 15 mph    
Max Gust Speed 18 mph    
Visibility 10 miles    
Events      
T = Trace of Precipitation, MM = Missing Value Source: NWS Daily Summary

Daily Weather History Graph

Daily Weather History Graph

Search for Another Location

Airport or City:

Trip Planner

Search our weather history database for the weather conditions in past years. The results will help you decide how hot, cold, wet, or windy it might be!

Date:

Astronomy

Oct. 30, 2011 Rise Set
Actual Time 7:25 AM CDT 6:16 PM CDT
Civil Twilight 6:59 AM CDT 6:42 PM CDT
Nautical Twilight 6:30 AM CDT 7:12 PM CDT
Astronomical Twilight 6:00 AM CDT 7:41 PM CDT
Moon 11:37 AM CDT 9:53 PM CDT
Length of Visible Light 11h 42m
Length of Day
10h 51m
Waxing Crescent, 20% of the Moon is Illuminated
Oct 30
Waxing Crescent
Nov 2
First Quarter
Nov 10
Full
Nov 18
Last Quarter
Nov 25
New

Hourly Weather History & Observations

Time (CDT) Temp. Dew Point Humidity Pressure Visibility Wind Dir Wind Speed Gust Speed Precip Events Conditions
12:53 AM 41.0 °F 37.9 °F 89% 30.17 in 10.0 mi Calm Calm - N/A   Clear
1:53 AM 39.9 °F 37.0 °F 89% 30.18 in 10.0 mi Calm Calm - N/A   Clear
2:53 AM 39.0 °F 37.0 °F 93% 30.18 in 10.0 mi Calm Calm - N/A   Clear
3:53 AM 39.0 °F 36.0 °F 89% 30.19 in 10.0 mi Calm Calm - N/A   Clear
4:53 AM 37.0 °F 35.1 °F 93% 30.19 in 10.0 mi Calm Calm - N/A   Clear
5:53 AM 37.0 °F 34.0 °F 89% 30.20 in 10.0 mi Calm Calm - N/A   Clear
6:53 AM 35.1 °F 33.1 °F 92% 30.20 in 10.0 mi Calm Calm - N/A   Clear
7:53 AM 35.1 °F 33.1 °F 92% 30.23 in 10.0 mi Calm Calm - N/A   Clear
8:53 AM 42.1 °F 37.9 °F 85% 30.24 in 10.0 mi Calm Calm - N/A   Clear
9:53 AM 52.0 °F 37.9 °F 59% 30.26 in 10.0 mi SSE 5.8 mph - N/A   Clear
10:53 AM 59.0 °F 32.0 °F 36% 30.25 in 10.0 mi South 12.7 mph - N/A   Clear
11:53 AM 61.0 °F 32.0 °F 34% 30.24 in 10.0 mi South 8.1 mph - N/A   Clear
12:53 PM 63.0 °F 32.0 °F 31% 30.20 in 10.0 mi South 10.4 mph - N/A   Clear
1:53 PM 64.0 °F 30.9 °F 29% 30.17 in 10.0 mi South 6.9 mph - N/A   Clear
2:53 PM 63.0 °F 30.0 °F 29% 30.15 in 10.0 mi SSW 6.9 mph - N/A   Clear
3:53 PM 64.0 °F 30.9 °F 29% 30.14 in 10.0 mi SSW 8.1 mph - N/A   Clear
4:53 PM 64.0 °F 33.1 °F 31% 30.13 in 10.0 mi SSW 8.1 mph - N/A   Clear
5:53 PM 60.8 °F 35.6 °F 39% 30.14 in 10.0 mi SW 4.6 mph - N/A   Clear
6:53 PM 57.0 °F 37.9 °F 49% 30.15 in 10.0 mi South 4.6 mph - N/A   Clear
7:53 PM 50.0 °F 39.9 °F 68% 30.15 in 10.0 mi South 4.6 mph - N/A   Clear
8:53 PM 51.1 °F 37.9 °F 61% 30.16 in 10.0 mi South 4.6 mph - N/A   Clear
9:53 PM 50.0 °F 39.0 °F 66% 30.17 in 10.0 mi SSW 3.5 mph - N/A   Clear
10:53 PM 48.9 °F 37.0 °F 64% 30.19 in 10.0 mi Calm Calm - N/A   Clear
11:53 PM 48.0 °F 37.0 °F 66% 30.19 in 10.0 mi Calm Calm - N/A   Clear